Kelowna, British Columbia

9:14 PM PST on December 03, 2016 (GMT -0800)
Kelowna

Weather History for CYLW - September, 2012

Change the Weather History Date:

Sunday, September 2, 2012

  Actual Average Record
Temperature  
Mean Temperature 56 °F -  
Max Temperature 73 °F 73 °F 91 °F (1998)
Min Temperature 39 °F 45 °F 39 °F (1999)
Degree Days  
Heating Degree Days 9    
Growing Degree Days 6 (Base 50)    
Moisture  
Dew Point 39 °F    
Average Humidity 49    
Maximum Humidity 81    
Minimum Humidity 20    
Precipitation  
Precipitation 0.00 in - - ()
Sea Level Pressure  
Sea Level Pressure 30.07 in    
Wind  
Wind Speed 5 mph ()    
Max Wind Speed 15 mph    
Max Gust Speed 20 mph    
Visibility 8.9 miles    
Events      
Averages and records for this station are not official NWS values.
T = Trace of Precipitation, MM = Missing Value Source: Averaged Metar Reports

Daily Weather History Graph

Daily Weather History Graph

Search for Another Location

Airport or City:

Trip Planner

Search our weather history database for the weather conditions in past years. The results will help you decide how hot, cold, wet, or windy it might be!

Date:

Astronomy

Sep. 02, 2012 Rise Set
Actual Time 6:14 AM PDT 7:37 PM PDT
Civil Twilight 5:41 AM PDT 8:11 PM PDT
Nautical Twilight 5:00 AM PDT 8:51 PM PDT
Astronomical Twilight 4:16 AM PDT 9:35 PM PDT
Moon 8:05 PM PDT (9/2) 8:48 AM PDT (9/2)
Length of Visible Light 14h 29m
Length of Day
13h 22m
Waning Gibbous, 95% of the Moon is Illuminated
Sep 2
Waning Gibbous
Sep 8
Last Quarter
Sep 15
New
Sep 22
First Quarter
Sep 29
Full

Hourly Weather History & Observations

Time (PDT) Temp. Windchill Dew Point Humidity Pressure Visibility Wind Dir Wind Speed Gust Speed Precip Events Conditions
12:00 AM 55.4 °F - 39.2 °F 54% 30.03 in 9.0 mi SSW 5.8 mph - N/A   Clear
1:00 AM 51.8 °F - 39.2 °F 62% 30.04 in 9.0 mi SSW 4.6 mph - N/A   Clear
2:00 AM 51.8 °F - 39.2 °F 62% 30.04 in 9.0 mi SSW 5.8 mph - N/A   Scattered Clouds
3:00 AM 48.2 °F - 39.2 °F 71% 30.05 in 9.0 mi North 3.5 mph - N/A   Scattered Clouds
4:00 AM 46.4 °F - 39.2 °F 76% 30.07 in 9.0 mi Calm Calm - N/A   Clear
5:00 AM 49 °F - 38 °F 55% 30.07 in 10 mi ENE 4.6 mph - -  
5:00 AM 48.2 °F - 37.4 °F 66% 30.07 in 9.0 mi ENE 3.5 mph - N/A   Partly Cloudy
6:00 AM 44.6 °F 43.1 °F 37.4 °F 76% 30.08 in 9.0 mi East 3.5 mph - N/A   Partly Cloudy
7:00 AM 42.8 °F - 37.4 °F 81% 30.10 in 9.0 mi Calm Calm - N/A   Clear
8:00 AM 50.0 °F - 39.2 °F 66% 30.10 in 9.0 mi Calm Calm - N/A   Mostly Cloudy
9:00 AM 55.4 °F - 39.2 °F 54% 30.11 in 9.0 mi Calm Calm - N/A   Mostly Cloudy
10:00 AM 62.6 °F - 39.2 °F 42% 30.10 in 9.0 mi South 4.6 mph - N/A   Overcast
11:00 AM 65 °F - 38 °F 25% 30.10 in 10 mi SSE 4.6 mph - -  
11:00 AM 64.4 °F - 37.4 °F 37% 30.10 in 9.0 mi ESE 5.8 mph - N/A   Mostly Cloudy
12:00 PM 66.2 °F - 37.4 °F 35% 30.09 in 9.0 mi ESE 6.9 mph - N/A   Overcast
1:00 PM 69.8 °F - 37.4 °F 31% 30.07 in 9.0 mi ESE 8.1 mph - N/A   Partly Cloudy
1:11 PM 69.8 °F - 37.4 °F 31% 30.07 in 4.0 mi Variable 8.1 mph - N/A   Haze
1:15 PM 69.8 °F - 39.2 °F 33% 30.07 in 6.0 mi Variable 9.2 mph - N/A   Haze
2:00 PM 71.6 °F - 39.2 °F 31% 30.07 in 9.0 mi Variable 12.7 mph - N/A   Mostly Cloudy
3:00 PM 69.8 °F - 39.2 °F 33% 30.06 in 9.0 mi NNE 9.2 mph - N/A   Overcast
4:00 PM 71.6 °F - 39.2 °F 31% 30.06 in 9.0 mi North 10.4 mph - N/A   Mostly Cloudy
5:00 PM 72 °F - 40 °F 20% 30.05 in 10 mi NNW 12.7 mph - -   Overcast
5:00 PM 73.4 °F - 39.2 °F 29% 30.05 in 9.0 mi NNW 12.7 mph 18.4 mph N/A   Overcast
6:00 PM 71.6 °F - 41.0 °F 33% 30.05 in 9.0 mi North 15.0 mph - N/A   Mostly Cloudy
7:00 PM 68.0 °F - 41.0 °F 37% 30.06 in 9.0 mi North 12.7 mph - N/A   Clear
8:00 PM 64.4 °F - 44.6 °F 49% 30.06 in 9.0 mi North 15.0 mph - N/A   Clear
9:00 PM 59.0 °F - 42.8 °F 55% 30.07 in 9.0 mi NNE 9.2 mph 19.6 mph N/A   Clear
10:00 PM 55.4 °F - 42.8 °F 63% 30.08 in 9.0 mi East 6.9 mph - N/A   Clear
11:00 PM 52 °F - 42 °F 58% 30.09 in 10 mi NNE 6.9 mph - -  
11:00 PM 51.8 °F - 41.0 °F 67% 30.09 in 9.0 mi NE 3.5 mph - N/A   Clear